Погода в Белом Озере

Россия / Ульяновская область     53°01′17″N   46°58′47″E
темп.,
°C
ветер,
м/с
пор.,
м/с
влажн.,
%
обл.,
%
осадки,
мм/ч
давл.,
гПа
погр.,
м
4 июля, пн
пн401:00+13ссз389565 0.0 1011172
04:00+14с3892100 0.1 1011290
07:00+15с4985100 0.1 1011545
10:00+16с6964100 0.1 10121234
13:00+19ссв6847100 0.1 10121708
16:00+19с794320 0.1 10121971
19:00+18ссв41157100 0.0 10121549
22:00+12с2781100 0.0 1014161
5 июля, вт
вт501:00+11с28950 0.0 1015195
04:00+10с399811 0.0 1016214
07:00+12ссв397798 0.0 1016384
10:00+17ссв585477 0.0 10161528
13:00+19ссв6745100 0.0 10161835
16:00+19св564399 0.0 10171595
19:00+17всв3455100 0.0 10181107
22:00+11св1181100 0.0 101911
6 июля, ср
ср601:00+10сз11835 0.0 101910
04:00+9зсз22804 0.0 102015
07:00+14сз22667 0.0 1020124
10:00+19сз224913 0.0 1019933
13:00+23зсз22415 0.0 10191536
16:00+24зсз22395 0.0 10181672
19:00+22з245338 0.0 1018270
22:00+15зюз227614 0.0 101926
7 июля, чт
чт701:00+14зюз227473 0.0 101814
04:00+13зюз22735 0.0 101919
07:00+17зюз24655 0.0 1019121
10:00+23з23524 0.0 1019747
13:00+26з224652 0.0 10181727
16:00+26з2250100 0.0 10171170
19:00+25юз126475 0.1 101860
22:00+20зюз2277100 0.1 101831
8 июля, пт
пт801:00+18зсз228761 0.1 101814
04:00+17з1194100 2.0 101912
07:00+19зсз138713 0.3 1019111
10:00+25сз23565 0.3 1018751
13:00+28сз224560 0.0 10182003
16:00+23ююз2467100 0.2 101869
19:00+20ю2285100 2.3 101836
22:00+19ююз118592 3.4 101814